Tupelo, MS

10:51 AM CST on December 11, 2019 (GMT -0600)
Tupelo Regional

Weather History for KTUP - September, 2019

Change the Weather History Date:

Monday, September 16, 2019

  Actual Average Record
Temperature  
Mean Temperature 85 °F 74 °F  
Max Temperature 98 °F 86 °F 104 °F (1980)
Min Temperature 72 °F 63 °F 46 °F (1961)
Degree Days  
Heating Degree Days 0 0  
Month to date heating degree days 0 0  
Since 1 July heating degree days 0 0  
Cooling Degree Days 20 9  
Month to date cooling degree days 265 188  
Year to date cooling degree days 2098 1860  
Growing Degree Days 35 (Base 50)    
Moisture  
Dew Point 67 °F    
Average Humidity 61    
Maximum Humidity 93    
Minimum Humidity 29    
Precipitation  
Precipitation 0.00 in 0.12 in 2.92 in (1968)
Month to date precipitation 0.01 1.69  
Year to date precipitation 58.38 38.16  
Snow  
Snow 0.00 in 0.00 in - ()
Month to date snowfall 0.0 0.0  
Since 1 July snowfall 0.0 0.0  
Since 1 September snowfall 0.0 0.0  
Snow Depth 0.00 in    
Sea Level Pressure  
Sea Level Pressure 30.04 in    
Wind  
Wind Speed 1 mph (NNE)    
Max Wind Speed 10 mph    
Max Gust Speed 14 mph    
Visibility 9 miles    
Events      
T = Trace of Precipitation, MM = Missing Value Source: NWS Daily Summary

Daily Weather History Graph

Daily Weather History Graph

Search for Another Location

Airport or City:

Astronomy

Sep. 16, 2019 Rise Set
Actual Time 6:38 AM CDT 7:00 PM CDT
Civil Twilight 6:13 AM CDT 7:25 PM CDT
Nautical Twilight 5:44 AM CDT 7:55 PM CDT
Astronomical Twilight 5:14 AM CDT 8:24 PM CDT
Moon 8:40 PM CDT (9/16) 8:41 AM CDT (9/16)
Length of Visible Light 13h 12m
Length of Day
12h 21m
Waning Gibbous, 94% of the Moon is Illuminated
Sep 16
Waning Gibbous
Sep 21
Last Quarter
Sep 28
New
Oct 5
First Quarter
Oct 13
Full

Hourly Weather History & Observations

Time (CDT) Temp. Heat Index Dew Point Humidity Pressure Visibility Wind Dir Wind Speed Gust Speed Precip Events Conditions
12:53 AM 77.0 °F - 71.1 °F 82% 30.05 in 10.0 mi Calm Calm - N/A   Clear
1:53 AM 73.9 °F - 70.0 °F 87% 30.04 in 8.0 mi NNE 4.6 mph - N/A   Clear
2:53 AM 75.0 °F - 70.0 °F 84% 30.04 in 9.0 mi Calm Calm - N/A   Clear
3:53 AM 73.9 °F - 70.0 °F 87% 30.05 in 8.0 mi Calm Calm - N/A   Clear
4:53 AM 73.0 °F - 69.1 °F 87% 30.05 in 8.0 mi Calm Calm - N/A   Clear
5:53 AM 72.0 °F - 69.1 °F 91% 30.07 in 7.0 mi Calm Calm - N/A   Clear
6:53 AM 72.0 °F - 68.0 °F 87% 30.09 in 5.0 mi North 4.6 mph - N/A   Clear
7:53 AM 75.9 °F - 70.0 °F 82% 30.10 in 7.0 mi North 3.5 mph - N/A   Clear
8:53 AM 81.0 °F 84.4 °F 70.0 °F 69% 30.10 in 9.0 mi Variable 4.6 mph - N/A   Clear
9:53 AM 88.0 °F 93.8 °F 71.1 °F 57% 30.10 in 10.0 mi NNE 4.6 mph - N/A   Clear
10:53 AM 91.0 °F 95.2 °F 68.0 °F 47% 30.10 in 10.0 mi ENE 8.1 mph - N/A   Clear
11:53 AM 93.9 °F 97.5 °F 66.9 °F 41% 30.08 in 10.0 mi Variable 3.5 mph - N/A   Clear
12:53 PM 96.1 °F 98.3 °F 64.0 °F 35% 30.06 in 10.0 mi Variable 4.6 mph - N/A   Clear
1:53 PM 97.0 °F 98.3 °F 63.0 °F 32% 30.04 in 10.0 mi Variable 4.6 mph - N/A   Clear
2:53 PM 95.0 °F 95.2 °F 61.0 °F 32% 30.01 in 10.0 mi Variable 5.8 mph - N/A   Mostly Cloudy
3:53 PM 97.0 °F 96.5 °F 59.0 °F 28% 30.00 in 10.0 mi Variable 5.8 mph - N/A   Clear
4:53 PM 95.0 °F 95.6 °F 62.1 °F 33% 29.99 in 10.0 mi Variable 5.8 mph - N/A   Clear
5:53 PM 95.0 °F 95.6 °F 62.1 °F 33% 29.99 in 6.0 mi NE 5.8 mph - N/A   Haze
6:53 PM 90.0 °F 91.3 °F 64.0 °F 42% 29.98 in 8.0 mi Calm Calm - N/A   Clear
7:53 PM 84.0 °F 86.5 °F 66.9 °F 56% 29.99 in 10.0 mi Calm Calm - N/A   Clear
8:53 PM 81.0 °F 83.8 °F 68.0 °F 65% 29.99 in 10.0 mi Calm Calm - N/A   Clear
9:53 PM 79.0 °F - 69.1 °F 72% 30.00 in 10.0 mi Calm Calm - N/A   Clear
10:53 PM 77.0 °F - 70.0 °F 79% 30.00 in 10.0 mi Calm Calm - N/A   Clear
11:53 PM 75.9 °F - 68.0 °F 76% 30.00 in 10.0 mi Calm Calm - N/A   Clear